CYGFM07

Last updated on Thu Jul 03 2025 00:02:22 GMT+0000 (Coordinated Universal Time)

1 41890U 16078G 25183.21730395 .00010612 00000+0 23416-3 0 9991 2 41890 34.9498 7.0681 0007920 124.9070 235.2395 15.43020257474636
UTC large
Height (km)
Speed (km/s)
/
Latitude / Longitude
Inclination (degrees)
Orbital Period (minutes)
Azimuth
Elevation
Range (km)
Doppler Factor

Next 0 passes for location: London (51.5072 / 0.1276)

Sorry there are no passes over London.